Location: Gwatt
(46.7204°N, 7.6223°E)
Time: 15:39:43
(UTC+00:00)

Cosmos 2082 Rocket - Pass Details

Date: 18 September 2020
Orbit: 834 x 853 km, 71.0° (Epoch: 23 October)

Event Time Altitude Azimuth Distance (km) Brightness Sun altitude
Rises 22:23:51 0° 326° (NNW) 3,392 6.2 -40.1°
Reaches altitude 10° 22:26:27 10° 319° (NW) 2,454 5.2 -40.3°
Enters shadow 22:28:04 18° 309° (NW) 1,928 4.5 -40.4°
